Location: Lancaster
(34.6980°N, 118.1360°W)
Time: 18:10:26
(UTC-08:00)

OTV 5 (USA 277) - Pass Details

Date: 15 November 2017
Orbit: 404 x 417 km, 43.0° (Epoch: 07 September)

Event Time Altitude Azimuth Distance (km) Brightness Sun altitude
Exits shadow 04:30:21 15° 30° (NNE) 1,207 ? -23.9°
Drops below altitude 10° 04:31:19 10° 45° (NE) 1,456 ? -23.7°
Sets 04:33:50 0° 64° (ENE) 2,315 ? -23.2°
